{"data":{"norad_id":29236,"intl_designator":"2006-023A","name":"GALAXY 16 (G-16)","alt_names":[],"object_type":"PAYLOAD","status":"ACTIVE","operator":null,"country":"US","launch_date":"2006-06-18","launch_site_code":"SEAL","launch_vehicle":null,"mission":null,"orbit_class":"UNKNOWN","rcs_meters":251.785,"size_class":null,"mass_kg":null,"dimensions":null,"purposes":["comms"],"wikipedia_slug":null,"has_3d_model":false,"image_url":null,"decayed_at":null,"tle_current":{"epoch":"2026-09-19T21:39:38.598912Z","epoch_age_seconds":66053,"freshness":"FRESH","line1":"1 29236U 06023A   26262.90253008 -.00000131  00000+0  00000+0 0  9992","line2":"2 29236   0.0131 164.8224 0002695  17.5644  42.3389  1.00271610 73923","mean_motion":1.0027161,"eccentricity":0.0002695,"inclination_deg":0.0131,"raan_deg":164.8224,"arg_perigee_deg":17.5644,"mean_anomaly_deg":42.3389,"bstar":0,"rev_number":7392,"period_min":1436.0994103914,"perigee_km":35775.28061163,"apogee_km":35798.0074286,"semimajor_km":42164.781020115,"source":"CELESTRAK","updated_at":"2026-09-20T09:00:35.515964Z"}}}